SES-12

Last updated on Thu Oct 30 2025 00:02:51 GMT+0000 (Coordinated Universal Time)

1 43488U 18049A 25301.89803277 -.00000260 00000+0 00000+0 0 9991 2 43488 0.0367 57.4468 0002090 195.6064 202.7582 1.00271295 27104
UTC large
Height (km)
Speed (km/s)
/
Latitude / Longitude
Inclination (degrees)
Orbital Period (minutes)
Azimuth
Elevation
Range (km)
Doppler Factor

Next 0 passes for location: London (51.5072 / 0.1276)

Sorry there are no passes over London.